When you browse on this site, cookies collect data to enhance your experience and personalize the content and advertising you see.
Visit our Privacy Policy to learn more. By continuing to use the site, you agree to this use of cookies and data.
  • In Austria
  • List of Countries
  • For 7 days
  • Water Temperature
  • Satellite Maps
  • Weather Map
  • News
  • Weather Widgets
  • user-avatar
    Login

    Hourly Weather Bebnikat

    Today, 11 December, Tuesday

    Time Temperature Precipitation Wind Pressure Humidity
    00:00 +2°C° 0.6 mm 7 mps 750 mmHg 81%
    01:00 +2°C° 0 mm 6 mps 751 mmHg 83%
    02:00 +2°C° 0.6 mm 6 mps 751 mmHg 83%
    03:00 +2°C° 0.6 mm 6 mps 751 mmHg 82%
    04:00 +2°C° 0.6 mm 6 mps 751 mmHg 82%
    05:00 +2°C° 0.2 mm 6 mps 751 mmHg 82%
    06:00 +2°C° 0.2 mm 6 mps 752 mmHg 81%
    07:00 +1°C° 0 mm 5 mps 752 mmHg 82%
    08:00 +1°C° 0.2 mm 6 mps 753 mmHg 81%
    09:00 +1°C° 0.2 mm 6 mps 754 mmHg 80%
    10:00 +2°C° 0.2 mm 6 mps 754 mmHg 79%
    11:00 +2°C° 0.2 mm 6 mps 755 mmHg 78%
    12:00 +2°C° 0.2 mm 6 mps 755 mmHg 78%
    13:00 +2°C° 0.2 mm 6 mps 756 mmHg 77%
    14:00 +2°C° 0.2 mm 6 mps 756 mmHg 79%
    15:00 +2°C° 0.2 mm 5 mps 757 mmHg 81%
    16:00 +1°C° 0.2 mm 5 mps 757 mmHg 83%
    17:00 +1°C° 0.2 mm 5 mps 757 mmHg 84%
    18:00 +1°C° 0.2 mm 5 mps 758 mmHg 85%
    19:00 +1°C° 0.2 mm 5 mps 758 mmHg 86%
    20:00 +1°C° 0.1 mm 5 mps 759 mmHg 87%
    21:00 +1°C° 0.1 mm 5 mps 760 mmHg 89%
    22:00 0°C° 0.1 mm 4 mps 760 mmHg 90%
    23:00 0°C° 0 mm 4 mps 761 mmHg 89%

    Tomorrow, 12 December, Wednesday

    Time Temperature Precipitation Wind Pressure Humidity
    00:00 0°C° 0 mm 4 mps 761 mmHg 89%
    01:00 0°C° 0 mm 4 mps 762 mmHg 88%
    02:00 +1°C° 0 mm 3 mps 762 mmHg 88%
    03:00 +1°C° 0 mm 3 mps 763 mmHg 87%
    04:00 +1°C° 0 mm 3 mps 763 mmHg 87%
    05:00 +1°C° 0.1 mm 3 mps 763 mmHg 87%
    06:00 +2°C° 0.1 mm 2 mps 764 mmHg 87%
    07:00 +1°C° 0.1 mm 2 mps 764 mmHg 87%
    08:00 +2°C° 0.1 mm 2 mps 765 mmHg 85%
    09:00 +2°C° 0.1 mm 2 mps 765 mmHg 83%
    10:00 +2°C° 0.1 mm 3 mps 765 mmHg 81%
    11:00 +2°C° 0.1 mm 3 mps 765 mmHg 80%
    12:00 +3°C° 0.1 mm 3 mps 766 mmHg 80%
    13:00 +3°C° 0.1 mm 3 mps 766 mmHg 79%
    14:00 +3°C° 0.1 mm 3 mps 766 mmHg 82%
    15:00 +1°C° 0.1 mm 4 mps 766 mmHg 84%
    16:00 +1°C° 0.1 mm 4 mps 766 mmHg 87%
    17:00 0°C° 0.1 mm 4 mps 766 mmHg 87%
    18:00 0°C° 0.1 mm 4 mps 766 mmHg 88%
    19:00 0°C° 0.1 mm 4 mps 767 mmHg 89%
    20:00 0°C° 0.1 mm 4 mps 767 mmHg 89%
    21:00 -1°C° 0.1 mm 4 mps 767 mmHg 90%
    22:00 0°C° 0.1 mm 3 mps 767 mmHg 90%
    23:00 0°C° 0 mm 3 mps 767 mmHg 90%

    Day after tomorrow, 13 December, Thursday

    Time Temperature Precipitation Wind Pressure Humidity
    00:00 0°C° 0 mm 3 mps 767 mmHg 90%
    01:00 0°C° 0 mm 3 mps 767 mmHg 90%
    02:00 0°C° 0 mm 3 mps 767 mmHg 91%
    03:00 0°C° 0 mm 3 mps 767 mmHg 91%
    04:00 +1°C° 0 mm 2 mps 767 mmHg 91%
    05:00 +1°C° 0.1 mm 2 mps 767 mmHg 91%
    06:00 +1°C° 0.1 mm 2 mps 766 mmHg 91%
    07:00 -1°C° 0.1 mm 2 mps 766 mmHg 91%
    08:00 0°C° 0.1 mm 3 mps 766 mmHg 89%
    09:00 0°C° 0.1 mm 3 mps 766 mmHg 87%
    10:00 +1°C° 0.1 mm 3 mps 766 mmHg 85%
    11:00 +1°C° 0.1 mm 3 mps 766 mmHg 83%
    12:00 +2°C° 0.1 mm 2 mps 766 mmHg 81%
    13:00 +3°C° 0.1 mm 2 mps 766 mmHg 78%
    14:00 +2°C° 0.1 mm 2 mps 766 mmHg 81%
    15:00 +1°C° 0.1 mm 2 mps 766 mmHg 84%
    16:00 +1°C° 0.1 mm 2 mps 766 mmHg 86%
    17:00 +1°C° 0 mm 2 mps 766 mmHg 87%
    18:00 +1°C° 0 mm 2 mps 766 mmHg 87%
    19:00 -1°C° 0 mm 2 mps 766 mmHg 88%
    20:00 -1°C° 0 mm 2 mps 766 mmHg 88%
    21:00 -1°C° 0 mm 2 mps 766 mmHg 88%
    22:00 -1°C° 0 mm 2 mps 766 mmHg 88%
    23:00 -1°C° 0 mm 2 mps 767 mmHg 88%

    14 December, Friday

    Time Temperature Precipitation Wind Pressure Humidity
    00:00 -1°C° 0 mm 2 mps 767 mmHg 88%
    01:00 -1°C° 0 mm 2 mps 767 mmHg 88%
    02:00 -1°C° 0 mm 2 mps 767 mmHg 88%
    03:00 -2°C° 0 mm 2 mps 767 mmHg 88%
    04:00 0°C° 0 mm 1 mps 767 mmHg 89%
    05:00 -2°C° 0 mm 2 mps 767 mmHg 88%
    06:00 -2°C° 0 mm 2 mps 767 mmHg 87%
    07:00 -2°C° 0 mm 2 mps 767 mmHg 86%
    08:00 -2°C° 0 mm 2 mps 767 mmHg 83%
    09:00 -2°C° 0 mm 2 mps 767 mmHg 80%
    10:00 -1°C° 0 mm 3 mps 768 mmHg 77%
    11:00 -1°C° 0 mm 3 mps 768 mmHg 74%
    12:00 -1°C° 0 mm 3 mps 768 mmHg 71%
    13:00 0°C° 0 mm 3 mps 768 mmHg 68%
    14:00 -1°C° 0 mm 3 mps 768 mmHg 71%
    15:00 -1°C° 0 mm 3 mps 768 mmHg 74%
    16:00 -2°C° 0 mm 3 mps 768 mmHg 77%
    17:00 -2°C° 0 mm 3 mps 769 mmHg 77%
    18:00 -2°C° 0 mm 3 mps 769 mmHg 78%
    19:00 -2°C° 0 mm 3 mps 769 mmHg 79%
    20:00 -2°C° 0 mm 3 mps 769 mmHg 80%
    21:00 -2°C° 0 mm 3 mps 769 mmHg 81%
    22:00 -4°C° 0 mm 3 mps 770 mmHg 83%
    23:00 -4°C° 0 mm 3 mps 770 mmHg 83%

    15 December, Saturday

    Time Temperature Precipitation Wind Pressure Humidity
    00:00 -4°C° 0 mm 3 mps 770 mmHg 84%
    01:00 -3°C° 0 mm 2 mps 770 mmHg 85%
    02:00 -3°C° 0 mm 2 mps 770 mmHg 86%
    03:00 -3°C° 0 mm 2 mps 770 mmHg 86%
    04:00 -3°C° 0 mm 2 mps 770 mmHg 86%
    05:00 -3°C° 0 mm 2 mps 770 mmHg 86%
    06:00 -3°C° 0 mm 2 mps 770 mmHg 87%
    07:00 -3°C° 0 mm 2 mps 770 mmHg 87%
    08:00 -2°C° 0 mm 2 mps 771 mmHg 85%
    09:00 0°C° 0 mm 1 mps 771 mmHg 83%
    10:00 0°C° 0 mm 1 mps 772 mmHg 81%
    11:00 +1°C° 0 mm 1 mps 772 mmHg 80%
    12:00 +1°C° 0 mm 1 mps 772 mmHg 78%
    13:00 +2°C° 0 mm 1 mps 772 mmHg 77%
    14:00 +1°C° 0 mm 1 mps 772 mmHg 80%
    15:00 0°C° 0 mm 1 mps 772 mmHg 84%
    16:00 0°C° 0 mm 1 mps 772 mmHg 87%
    17:00 -2°C° 0 mm 2 mps 772 mmHg 88%
    18:00 -2°C° 0 mm 2 mps 772 mmHg 89%
    19:00 -2°C° 0 mm 2 mps 772 mmHg 89%
    20:00 -3°C° 0 mm 2 mps 772 mmHg 89%
    21:00 -3°C° 0 mm 2 mps 772 mmHg 89%
    22:00 -4°C° 0 mm 3 mps 772 mmHg 89%
    23:00 -4°C° 0 mm 3 mps 772 mmHg 88%

    16 December, Sunday

    Time Temperature Precipitation Wind Pressure Humidity
    00:00 -4°C° 0 mm 3 mps 772 mmHg 87%
    01:00 -3°C° 0 mm 2 mps 772 mmHg 87%
    02:00 -4°C° 0 mm 3 mps 772 mmHg 87%
    03:00 -4°C° 0 mm 3 mps 772 mmHg 88%
    04:00 -4°C° 0 mm 3 mps 771 mmHg 88%
    05:00 -4°C° 0 mm 3 mps 771 mmHg 88%
    06:00 -4°C° 0 mm 3 mps 771 mmHg 89%
    07:00 -4°C° 0 mm 4 mps 771 mmHg 89%
    08:00 -4°C° 0 mm 4 mps 771 mmHg 87%
    09:00 -5°C° 0 mm 5 mps 770 mmHg 84%
    10:00 -4°C° 0 mm 5 mps 770 mmHg 82%
    11:00 -4°C° 0 mm 5 mps 770 mmHg 80%
    12:00 -3°C° 0 mm 6 mps 770 mmHg 78%
    13:00 -3°C° 0 mm 6 mps 769 mmHg 76%
    14:00 -3°C° 0 mm 6 mps 769 mmHg 78%
    15:00 -4°C° 0 mm 5 mps 768 mmHg 80%
    16:00 -4°C° 0 mm 5 mps 768 mmHg 82%
    17:00 -4°C° 0 mm 6 mps 768 mmHg 81%
    18:00 -4°C° 0 mm 6 mps 767 mmHg 80%
    19:00 -4°C° 0 mm 7 mps 767 mmHg 79%
    20:00 -4°C° 0 mm 7 mps 767 mmHg 77%
    21:00 -5°C° 0 mm 8 mps 766 mmHg 75%
    22:00 -4°C° 0 mm 8 mps 766 mmHg 73%
    23:00 -4°C° 0 mm 8 mps 765 mmHg 72%
    Show more